Baltimore, MD

11:49 PM EST on November 18, 2019 (GMT -0500)
Baltimore-Washington International

Weather History for KBWI - October, 2019

Change the Weather History Date:

Tuesday, October 22, 2019

  Actual Average Record
Temperature  
Mean Temperature 59 °F 54 °F  
Max Temperature 63 °F 65 °F 85 °F (1979)
Min Temperature 55 °F 43 °F 31 °F (1952)
Degree Days  
Heating Degree Days 6 11  
Month to date heating degree days 94 181  
Since 1 July heating degree days 97 234  
Cooling Degree Days 0 0  
Month to date cooling degree days 58 15  
Year to date cooling degree days 1756 1160  
Growing Degree Days 9 (Base 50)    
Moisture  
Dew Point 59 °F    
Average Humidity 94    
Maximum Humidity 100    
Minimum Humidity 83    
Precipitation  
Precipitation 0.72 in 0.11 in 2.04 in (1956)
Month to date precipitation 3.61 2.38  
Year to date precipitation 30.86 34.26  
Snow  
Snow 0.00 in 0.00 in T in (2003)
Month to date snowfall 0.0 0.0  
Since 1 July snowfall 0.0 0.0  
Snow Depth 0.00 in    
Sea Level Pressure  
Sea Level Pressure 29.91 in    
Wind  
Wind Speed 5 mph ()    
Max Wind Speed 15 mph    
Max Gust Speed 21 mph    
Visibility 4.7 miles    
Events Rain    
T = Trace of Precipitation, MM = Missing Value Source: Averaged Metar Reports

Daily Weather History Graph

Daily Weather History Graph

Search for Another Location

Airport or City:

Astronomy

Oct. 22, 2019 Rise Set
Actual Time 7:23 AM EDT 6:18 PM EDT
Civil Twilight 6:56 AM EDT 6:45 PM EDT
Nautical Twilight 6:24 AM EDT 7:16 PM EDT
Astronomical Twilight 5:53 AM EDT 7:47 PM EDT
Moon 12:34 AM EDT (10/22) 3:22 PM EDT (10/22)
Length of Visible Light 11h 49m
Length of Day
10h 55m
Last Quarter, 37% of the Moon is Illuminated
Oct 22
Last Quarter
Oct 27
New
Nov 4
First Quarter
Nov 12
Full
Nov 19
Last Quarter

Hourly Weather History & Observations

Time (EDT) Temp. Dew Point Humidity Pressure Visibility Wind Dir Wind Speed Gust Speed Precip Events Conditions
12:54 AM 61.0 °F 55.9 °F 83% 30.06 in 10.0 mi SE 3.5 mph - N/A   Overcast
1:54 AM 61.0 °F 55.9 °F 83% 30.07 in 10.0 mi Calm Calm - N/A   Overcast
2:33 AM 60.1 °F 55.9 °F 86% 30.06 in 10.0 mi SE 3.5 mph - N/A   Overcast
2:54 AM 60.1 °F 55.9 °F 86% 30.06 in 10.0 mi SE 3.5 mph - N/A   Overcast
3:54 AM 60.1 °F 55.9 °F 86% 30.03 in 10.0 mi SE 4.6 mph - N/A   Overcast
4:54 AM 59.0 °F 57.0 °F 93% 30.01 in 10.0 mi ESE 6.9 mph - N/A   Overcast
5:27 AM 59.0 °F 57.9 °F 96% 30.00 in 3.0 mi ESE 6.9 mph - 0.00 in   Light Drizzle
5:42 AM 59.0 °F 57.9 °F 96% 30.01 in 2.0 mi East 8.1 mph - 0.01 in   Light Drizzle
5:54 AM 59.0 °F 57.9 °F 96% 30.02 in 2.0 mi ESE 4.6 mph - 0.01 in   Light Drizzle
6:07 AM 59.0 °F 57.9 °F 96% 30.01 in 1.5 mi ESE 5.8 mph - 0.00 in   Light Drizzle
6:54 AM 59.0 °F 57.9 °F 96% 30.00 in 1.8 mi ESE 5.8 mph - 0.01 in   Light Drizzle
7:25 AM 59.0 °F 57.9 °F 96% 29.99 in 1.0 mi ESE 9.2 mph - 0.01 in   Light Drizzle
7:54 AM 59.0 °F 59.0 °F 100% 30.00 in 1.2 mi SE 3.5 mph - 0.02 in   Light Drizzle
8:54 AM 59.0 °F 57.9 °F 96% 30.00 in 1.2 mi South 4.6 mph - 0.02 in Rain Light Rain
9:54 AM 60.1 °F 57.9 °F 93% 29.98 in 1.5 mi SSE 3.5 mph - 0.01 in Rain Light Rain
10:11 AM 60.1 °F 59.0 °F 96% 29.96 in 2.0 mi ESE 6.9 mph - 0.00 in Rain Light Rain
10:31 AM 60.1 °F 60.1 °F 100% 29.97 in 3.0 mi South 4.6 mph - 0.00 in Rain Light Rain
10:54 AM 61.0 °F 59.0 °F 93% 29.96 in 5.0 mi SSE 6.9 mph - 0.00 in   Overcast
11:23 AM 61.0 °F 59.0 °F 93% 29.94 in 3.0 mi SE 8.1 mph - N/A   Overcast
11:34 AM 61.0 °F 59.0 °F 93% 29.94 in 2.5 mi SSE 5.8 mph - 0.00 in   Light Drizzle
11:54 AM 61.0 °F 59.0 °F 93% 29.94 in 2.5 mi SE 6.9 mph - 0.00 in   Light Drizzle
12:37 PM 61.0 °F 59.0 °F 93% 29.91 in 1.8 mi SE 8.1 mph - 0.00 in   Light Drizzle
12:54 PM 61.0 °F 60.1 °F 97% 29.90 in 1.2 mi SSE 6.9 mph - 0.00 in Rain Light Rain
1:26 PM 62.1 °F 60.1 °F 93% 29.87 in 2.5 mi SSE 13.8 mph - 0.00 in Rain Light Rain
1:54 PM 62.1 °F 59.0 °F 90% 29.85 in 8.0 mi SE 10.4 mph 20.7 mph 0.00 in   Overcast
2:54 PM 62.1 °F 60.1 °F 93% 29.82 in 4.0 mi SE 9.2 mph - 0.01 in Rain Light Rain
3:26 PM 62.1 °F 61.0 °F 96% 29.80 in 2.5 mi SE 8.1 mph - 0.07 in Rain Light Rain
3:36 PM 62.1 °F 61.0 °F 96% 29.81 in 4.0 mi SE 6.9 mph - 0.08 in Rain Light Rain
3:49 PM 62.6 °F 60.8 °F 94% 29.81 in 1.5 mi SE 5.8 mph - 0.10 in Rain Heavy Rain
3:54 PM 62.1 °F 61.0 °F 96% 29.81 in 1.0 mi SE 8.1 mph - 0.24 in Rain Heavy Rain
4:10 PM 62.1 °F 61.0 °F 96% 29.80 in 4.0 mi SE 4.6 mph - 0.06 in Rain Light Rain
4:37 PM 62.1 °F 61.0 °F 96% 29.79 in 2.5 mi South 4.6 mph - 0.10 in Rain Light Rain
4:52 PM 62.6 °F 60.8 °F 94% 29.80 in 1.8 mi West 10.4 mph - 0.14 in Rain Rain
4:54 PM 62.1 °F 61.0 °F 96% 29.81 in 2.0 mi West 12.7 mph - 0.15 in Rain Rain
5:03 PM 62.1 °F 61.0 °F 96% 29.82 in 1.0 mi WNW 12.7 mph - 0.08 in Rain Heavy Rain
5:08 PM 62.1 °F 61.0 °F 96% 29.82 in 1.2 mi WNW 12.7 mph - 0.11 in Rain Rain
5:38 PM 61.0 °F 60.1 °F 97% 29.82 in 2.5 mi WNW 8.1 mph - 0.22 in Rain Light Rain
5:45 PM 61.0 °F 60.1 °F 97% 29.82 in 10.0 mi WNW 8.1 mph - 0.22 in Rain Light Rain
5:54 PM 60.1 °F 59.0 °F 96% 29.82 in 9.0 mi NW 8.1 mph - 0.23 in Rain Light Rain
6:54 PM 60.1 °F 59.0 °F 96% 29.81 in 10.0 mi NNE 4.6 mph - 0.01 in Rain Light Rain
7:54 PM 60.1 °F 59.0 °F 96% 29.81 in 10.0 mi Calm Calm - 0.01 in   Mostly Cloudy
8:54 PM 60.1 °F 59.0 °F 96% 29.83 in 10.0 mi West 6.9 mph - N/A   Mostly Cloudy
9:54 PM 59.0 °F 57.9 °F 96% 29.85 in 10.0 mi WNW 6.9 mph - N/A   Mostly Cloudy
10:54 PM 57.9 °F 57.0 °F 97% 29.85 in 10.0 mi West 5.8 mph - N/A   Mostly Cloudy
11:54 PM 57.0 °F 55.9 °F 96% 29.85 in 10.0 mi West 3.5 mph - N/A   Mostly Cloudy